Regional Weather Roundup
Issued by NWS Charleston, SC

Current Version | Previous Version | Graphics & Text | Print | Product List | Glossary On
Versions: 1 2 3 4 5 6 7 8 9 10 11 12 13 14 15 16 17 18 19 20 21 22 23 24 25 26 27 28 29 30 31 32 33 34 35 36 37 38 39 40 41 42 43 44 45 46 47 48 49 50
000 ASUS42 KCHS 190127 RWRCHS Regional Weather Roundup National Weather Service Charleston SC 800 PM EST THU JAN 18 2018 NOTE: "fair" indicates few or no clouds below 12,000 feet with no significant weather and/or obstructions to visibility. Not all stations are quality controlled. Use data with caution, especially dewpoint observations. SCZ027-030-031-034>040-042>050-190200- ...Southeast South Carolina... CITY SKY/WX TMP DP RH WIND PRES REMARKS N Charleston FAIR 34 16 47 NW6 30.31R WCI 29 Waterfront Prk NOT AVBL Mount Pleasant FAIR 32 23 69 CALM 30.31S Johns Island FAIR 32 19 59 CALM 30.31S Pinopolis N/A 37 18 44 CALM 30.23S Moncks Corner FAIR 28 21 74 CALM 30.31S Summerville FAIR 32 19 59 CALM 30.33S Beaufort MCAS FAIR 35 24 64 NW5 30.32S WCI 31 Beaufort Arpt FAIR 34 25 69 CALM 30.32S Hilton Head Is FAIR 34 23 64 CALM 30.35R Walterboro FAIR 30 21 69 CALM 30.33S Allendale FAIR 32 18 55 CALM 30.32R ...Southern Midlands and Pee Dee... CITY SKY/WX TMP DP RH WIND PRES REMARKS Georgetown FAIR 28 21 74 CALM 30.32R Kingstree FAIR 28 21 74 CALM 30.31R Orangeburg FAIR 34 21 59 CALM 30.31S Barnwell N/A 32 21 64 CALM 30.32R Aiken FAIR 32 16 51 CALM 30.33S Manning FAIR 30 19 64 MISG 30.31S Columbia FAIR 31 23 72 S3 30.30S Sumter FAIR 35 17 48 SW6 30.27S WCI 29 Florence FAIR 34 17 50 W6 30.29R WCI 29 Myrtle Beach FAIR 33 16 49 W5 30.31R WCI 29 N Myrtle Beach FAIR 30 22 72 CALM 30.29R $$ GAZ063-065-086>088-099>101-113>116-118-119-134>141-150-190200- ...Southeast Georgia... CITY SKY/WX TMP DP RH WIND PRES REMARKS Savannah Arpt FAIR 36 16 44 VRB3 30.34R Hunter AAF FAIR 36 14 40 SW5 30.32R WCI 32 Fort Stewart FAIR 34 20 57 CALM 30.33R Statesboro FAIR 31 21 64 CALM 30.33S Sylvania FAIR 32 23 69 CALM 30.33S Claxton FAIR 31 23 71 CALM 30.35R ...CSRA, Central and far Southeast Georgia... CITY SKY/WX TMP DP RH WIND PRES REMARKS Thomson FAIR 29 19 64 W6 30.36S WCI 23 Augusta-Bush FAIR 35 18 49 SW6 30.32R WCI 30 Augusta-Daniel FAIR 43 13 29 CALM 30.31S Swainsboro FAIR 32 25 74 CALM 30.34S Vidalia FAIR 32 27 80 W3 30.35R Eastman FAIR 31 16 54 CALM 30.38S Hazlehurst FAIR 35 20 55 CALM 30.35S Alma FAIR 32 23 69 CALM 30.36R Waycross FAIR 33 18 55 S3 30.37R Jesup FAIR 32 21 64 CALM 30.37R Baxley FAIR 32 23 69 CALM 30.36R Brunswick FAIR 34 19 55 CALM 30.38R Saint Simons FAIR 37 23 56 CALM 30.36R $$ SCZ027-028-034-036>038-045-046-048>050-GAZ119-141-190200- ...Lake and Supplemental Coastal Observations... STATION/POSITION TIME TEMP WIND PRES WAVE SWELL AIR SEA DIR/SP/G HT/PER HT/PER/DIR (UTC) (F) (DEG/KT/KT) (MB) (FT/S) (FT/S/D) Winyah Bay 0030 34 CALM 1026.0S Lake Murray 0020 40 270/ 2/ 3 1025.1 ACE Basin NERRS 0045 34 300/ 1 1026.0S Fort Pulaski 0100 40 45 220/ 4/ 4 1027.6 Sapelo Island 0100 40 300/ 2 1028.0 $$ ANZ835-935-AMZ111-154-330-350-352-354-370-450-454-472-190200- ...C-MAN and Buoy Observations... STATION/POSITION TIME TEMP WIND PRES WAVE SWELL AIR SEA DIR/SP/G HT/PER HT/PER/DIR (UTC) (F) (DEG/KT/KT) (MB) (FT/S) (FT/S/D) Buoy 41004 0100 47 69 330/ 14/ 17 1025.4 Buoy 41008 0050 47 51 290/ 10/ 12 1027.5R 3/11 2/ 80/11 Folly Beach CMAN 0100 39 300/ 2/ 3 1026.6S Capers Nearshore 0108 38 49 340/ 10/ 14 1025.7S Fripp Nearshore 0108 40 47 310/ 6/ 8 1026.1R STATION/POSITION TIME TEMP WIND PRES WAVE SWELL AIR SEA DIR/SP/G HT/PER HT/PER/DIR (UTC) (F) (DEG/KT/KT) (MB) (FT/S) (FT/S/D) 5E St. Marys GA 0100 49 N/A 3/12 2/110/12 Frying Pan Buoy 0100 43 65 310/ 16/ 19 1024.8 Buoy 41025 0100 40 43 290/ 19/ 23 1022.4 Cape Lookout NC 0100 300/ 14/ 17 1023.7R Buoy 41002 0050 53 70 320/ 16/ 21 1022.7R 12/ 9 10/360/ 9 Buoy 41010 NOT AVBL St Augustine FL 0100 40 49 240/ 2/ 2 1028.8R $$

USA.gov is the U.S. government's official web portal to all federal, state and local government web resources and services.